Time,TemperatureF,DewpointF,PressureIn,WindDirection,WindDirectionDegrees,WindSpeedMPH,WindSpeedGustMPH,Humidity,HourlyPrecipIn,Conditions,Clouds,dailyrainin,SoftwareType,DateUTC
2013-05-17 00:02:00,66.0,26.0,-100.00,WSW,245,14.0,19.0,21,-99.99,,,-99.99,,2013-05-17 00:02:00,
2013-05-17 00:13:00,66.0,26.0,-100.00,North,-999,-999.0,-999.0,21,-99.99,,,-99.99,,2013-05-17 00:13:00,
2013-05-17 00:33:00,65.0,26.0,-100.00,SW,230,12.0,-999.0,22,-99.99,,,-99.99,,2013-05-17 00:33:00,
2013-05-17 00:43:00,64.0,25.0,-100.00,SW,230,17.0,21.0,22,-99.99,,,-99.99,,2013-05-17 00:43:00,
2013-05-17 00:52:00,64.0,24.0,-100.00,West,260,23.0,31.0,21,-99.99,,,-99.99,,2013-05-17 00:52:00,
2013-05-17 01:03:00,63.0,25.0,-100.00,West,270,26.0,32.0,23,-99.99,,,-99.99,,2013-05-17 01:03:00,
2013-05-17 01:11:00,62.0,25.0,-100.00,West,280,25.0,35.0,23,-99.99,,,-99.99,,2013-05-17 01:11:00,
2013-05-17 01:23:00,59.0,26.0,-100.00,WNW,290,25.0,42.0,28,-99.99,,,-99.99,,2013-05-17 01:23:00,
2013-05-17 01:31:00,57.0,26.0,-100.00,NW,305,15.0,25.0,29,-99.99,,,-99.99,,2013-05-17 01:31:00,
2013-05-17 01:43:00,56.0,26.0,-100.00,NNW,335,9.0,16.0,31,-99.99,,,-99.99,,2013-05-17 01:43:00,
2013-05-17 01:52:00,55.0,27.0,-100.00,NNW,335,7.0,12.0,32,-99.99,,,-99.99,,2013-05-17 01:52:00,
2013-05-17 02:02:00,55.0,27.0,-100.00,NNW,330,8.0,11.0,33,-99.99,,,-99.99,,2013-05-17 02:02:00,
2013-05-17 02:11:00,56.0,27.0,-100.00,WSW,250,6.0,9.0,33,-99.99,,,-99.99,,2013-05-17 02:11:00,
2013-05-17 02:21:00,56.0,27.0,-100.00,West,260,7.0,10.0,32,-99.99,,,-99.99,,2013-05-17 02:21:00,
2013-05-17 02:32:00,56.0,27.0,-100.00,WSW,250,9.0,11.0,32,-99.99,,,-99.99,,2013-05-17 02:32:00,
2013-05-17 02:41:00,56.0,27.0,-100.00,SSW,205,9.0,11.0,33,-99.99,,,-99.99,,2013-05-17 02:41:00,
2013-05-17 02:52:00,56.0,28.0,-100.00,SSW,200,17.0,21.0,34,-99.99,,,-99.99,,2013-05-17 02:52:00,
2013-05-17 03:01:00,56.0,30.0,-100.00,South,190,17.0,24.0,37,-99.99,,,-99.99,,2013-05-17 03:01:00,
2013-05-17 03:11:00,55.0,31.0,-100.00,South,185,16.0,23.0,39,-99.99,,,-99.99,,2013-05-17 03:11:00,
2013-05-17 03:22:00,53.0,33.0,-100.00,South,180,13.0,18.0,45,-99.99,,,-99.99,,2013-05-17 03:22:00,
2013-05-17 03:33:00,53.0,34.0,-100.00,South,185,14.0,18.0,47,-99.99,,,-99.99,,2013-05-17 03:33:00,
2013-05-17 03:43:00,53.0,34.0,-100.00,South,175,12.0,17.0,48,-99.99,,,-99.99,,2013-05-17 03:43:00,
2013-05-17 03:52:00,52.0,35.0,-100.00,South,180,11.0,14.0,50,-99.99,,,-99.99,,2013-05-17 03:52:00,
2013-05-17 04:02:00,52.0,35.0,-100.00,South,180,10.0,13.0,52,-99.99,,,-99.99,,2013-05-17 04:02:00,
2013-05-17 04:12:00,53.0,35.0,-100.00,SSW,195,14.0,16.0,50,-99.99,,,-99.99,,2013-05-17 04:12:00,
2013-05-17 04:23:00,54.0,35.0,-100.00,SSW,195,12.0,16.0,48,-99.99,,,-99.99,,2013-05-17 04:23:00,
2013-05-17 04:33:00,54.0,34.0,-100.00,South,185,10.0,13.0,47,-99.99,,,-99.99,,2013-05-17 04:33:00,
2013-05-17 04:43:00,53.0,34.0,-100.00,WNW,295,4.0,11.0,48,-99.99,,,-99.99,,2013-05-17 04:43:00,
2013-05-17 04:53:00,54.0,33.0,-100.00,West,260,6.0,14.0,44,-99.99,,,-99.99,,2013-05-17 04:53:00,
2013-05-17 05:02:00,54.0,33.0,-100.00,WSW,250,6.0,7.0,44,-99.99,,,-99.99,,2013-05-17 05:02:00,
2013-05-17 05:13:00,54.0,32.0,-100.00,West,275,6.0,7.0,43,-99.99,,,-99.99,,2013-05-17 05:13:00,
2013-05-17 05:21:00,54.0,32.0,-100.00,West,270,11.0,20.0,42,-99.99,,,-99.99,,2013-05-17 05:21:00,
2013-05-17 05:32:00,54.0,32.0,-100.00,West,270,20.0,24.0,44,-99.99,,,-99.99,,2013-05-17 05:32:00,
2013-05-17 05:42:00,54.0,32.0,-100.00,West,280,19.0,27.0,44,-99.99,,,-99.99,,2013-05-17 05:42:00,
2013-05-17 05:51:00,53.0,33.0,-100.00,NW,310,12.0,27.0,46,-99.99,,,-99.99,,2013-05-17 05:51:00,
2013-05-17 06:01:00,52.0,33.0,-100.00,WNW,300,18.0,22.0,46,-99.99,,,-99.99,,2013-05-17 06:01:00,
2013-05-17 06:11:00,52.0,33.0,-100.00,NNW,345,10.0,17.0,47,-99.99,,,-99.99,,2013-05-17 06:11:00,
2013-05-17 06:21:00,52.0,32.0,-100.00,NNW,340,6.0,11.0,47,-99.99,,,-99.99,,2013-05-17 06:21:00,
2013-05-17 06:32:00,51.0,33.0,-100.00,NNE,15,6.0,9.0,48,-99.99,,,-99.99,,2013-05-17 06:32:00,
2013-05-17 06:41:00,52.0,33.0,-100.00,North,0,3.0,7.0,47,-99.99,,,-99.99,,2013-05-17 06:41:00,
2013-05-17 06:51:00,51.0,33.0,-100.00,SE,130,4.0,4.0,49,-99.99,,,-99.99,,2013-05-17 06:51:00,
2013-05-17 07:02:00,49.0,33.0,-100.00,East,100,3.0,7.0,52,-99.99,,,-99.99,,2013-05-17 07:02:00,
2013-05-17 07:11:00,50.0,33.0,-100.00,South,175,1.0,7.0,52,-99.99,,,-99.99,,2013-05-17 07:11:00,
2013-05-17 07:21:00,49.0,33.0,-100.00,South,180,4.0,5.0,53,-99.99,,,-99.99,,2013-05-17 07:21:00,
2013-05-17 07:32:00,48.0,33.0,-100.00,South,170,6.0,6.0,55,-99.99,,,-99.99,,2013-05-17 07:32:00,
2013-05-17 07:43:00,47.0,33.0,-100.00,SE,135,2.0,5.0,56,-99.99,,,-99.99,,2013-05-17 07:43:00,
2013-05-17 07:53:00,47.0,33.0,-100.00,ESE,110,1.0,4.0,57,-99.99,,,-99.99,,2013-05-17 07:53:00,
2013-05-17 08:02:00,49.0,34.0,-100.00,NE,40,0.0,0.0,57,-99.99,,,-99.99,,2013-05-17 08:02:00,
2013-05-17 08:12:00,49.0,34.0,-100.00,North,0,1.0,3.0,56,-99.99,,,-99.99,,2013-05-17 08:12:00,
2013-05-17 08:22:00,50.0,34.0,-100.00,North,350,7.0,7.0,53,-99.99,,,-99.99,,2013-05-17 08:22:00,
2013-05-17 08:33:00,50.0,33.0,-100.00,NNW,330,6.0,7.0,53,-99.99,,,-99.99,,2013-05-17 08:33:00,
2013-05-17 08:42:00,50.0,33.0,-100.00,WNW,295,4.0,7.0,53,-99.99,,,-99.99,,2013-05-17 08:42:00,
2013-05-17 08:51:00,49.0,33.0,-100.00,NW,320,4.0,4.0,55,-99.99,,,-99.99,,2013-05-17 08:51:00,
2013-05-17 09:02:00,48.0,33.0,-100.00,WNW,300,0.0,4.0,57,-99.99,,,-99.99,,2013-05-17 09:02:00,
2013-05-17 09:12:00,48.0,34.0,-100.00,NW,305,0.0,0.0,58,-99.99,,,-99.99,,2013-05-17 09:12:00,
2013-05-17 09:22:00,46.0,34.0,-100.00,SSE,150,1.0,3.0,60,-99.99,,,-99.99,,2013-05-17 09:22:00,
2013-05-17 09:33:00,45.0,33.0,-100.00,East,100,3.0,3.0,62,-99.99,,,-99.99,,2013-05-17 09:33:00,
2013-05-17 09:42:00,45.0,33.0,-100.00,SE,125,3.0,3.0,64,-99.99,,,-99.99,,2013-05-17 09:42:00,
2013-05-17 09:53:00,46.0,34.0,-100.00,East,80,2.0,3.0,63,-99.99,,,-99.99,,2013-05-17 09:53:00,
2013-05-17 10:03:00,47.0,35.0,-100.00,ESE,110,1.0,2.0,62,-99.99,,,-99.99,,2013-05-17 10:03:00,
2013-05-17 10:12:00,46.0,35.0,-100.00,East,80,0.0,4.0,63,-99.99,,,-99.99,,2013-05-17 10:12:00,
2013-05-17 10:23:00,47.0,35.0,-100.00,East,95,0.0,1.0,62,-99.99,,,-99.99,,2013-05-17 10:23:00,
2013-05-17 10:32:00,46.0,35.0,-100.00,SSE,155,0.0,0.0,63,-99.99,,,-99.99,,2013-05-17 10:32:00,
2013-05-17 10:42:00,46.0,35.0,-100.00,NW,320,5.0,6.0,65,-99.99,,,-99.99,,2013-05-17 10:42:00,
2013-05-17 10:53:00,48.0,36.0,-100.00,NNW,330,6.0,-999.0,62,-99.99,,,-99.99,,2013-05-17 10:53:00,
2013-05-17 11:02:00,47.0,35.0,-100.00,NW,320,6.0,7.0,62,-99.99,,,-99.99,,2013-05-17 11:02:00,
2013-05-17 11:12:00,46.0,35.0,-100.00,NW,320,6.0,7.0,63,-99.99,,,-99.99,,2013-05-17 11:12:00,
2013-05-17 11:22:00,46.0,35.0,-100.00,NW,310,6.0,6.0,64,-99.99,,,-99.99,,2013-05-17 11:22:00,
2013-05-17 11:33:00,46.0,35.0,-100.00,NW,325,5.0,6.0,64,-99.99,,,-99.99,,2013-05-17 11:33:00,
2013-05-17 11:42:00,46.0,35.0,-100.00,NW,315,5.0,6.0,65,-99.99,,,-99.99,,2013-05-17 11:42:00,
2013-05-17 11:52:00,46.0,35.0,-100.00,NW,315,6.0,6.0,65,-99.99,,,-99.99,,2013-05-17 11:52:00,
2013-05-17 12:02:00,46.0,35.0,-100.00,NW,310,6.0,6.0,65,-99.99,,,-99.99,,2013-05-17 12:02:00,
2013-05-17 12:11:00,46.0,35.0,-100.00,NW,315,4.0,6.0,65,-99.99,,,-99.99,,2013-05-17 12:11:00,
2013-05-17 12:23:00,48.0,37.0,-100.00,NNW,335,6.0,7.0,65,-99.99,,,-99.99,,2013-05-17 12:23:00,
2013-05-17 12:32:00,48.0,36.0,-100.00,NNW,340,6.0,7.0,62,-99.99,,,-99.99,,2013-05-17 12:32:00,
2013-05-17 12:42:00,49.0,36.0,-100.00,NNW,340,7.0,8.0,61,-99.99,,,-99.99,,2013-05-17 12:42:00,
2013-05-17 12:53:00,49.0,36.0,-100.00,NNW,335,7.0,7.0,60,-99.99,,,-99.99,,2013-05-17 12:53:00,
2013-05-17 13:03:00,49.0,36.0,-100.00,NW,320,5.0,7.0,59,-99.99,,,-99.99,,2013-05-17 13:03:00,
2013-05-17 13:12:00,49.0,36.0,-100.00,NW,315,4.0,7.0,59,-99.99,,,-99.99,,2013-05-17 13:12:00,
2013-05-17 13:23:00,50.0,36.0,-100.00,NW,320,6.0,7.0,58,-99.99,,,-99.99,,2013-05-17 13:23:00,
2013-05-17 13:33:00,49.0,35.0,-100.00,NW,325,7.0,8.0,58,-99.99,,,-99.99,,2013-05-17 13:33:00,
2013-05-17 13:42:00,49.0,36.0,-100.00,NW,325,6.0,7.0,59,-99.99,,,-99.99,,2013-05-17 13:42:00,
2013-05-17 13:52:00,50.0,36.0,-100.00,NNW,340,6.0,7.0,58,-99.99,,,-99.99,,2013-05-17 13:52:00,
2013-05-17 14:01:00,50.0,36.0,-100.00,NNW,340,5.0,7.0,57,-99.99,,,-99.99,,2013-05-17 14:01:00,
2013-05-17 14:12:00,51.0,36.0,-100.00,NNW,330,4.0,6.0,56,-99.99,,,-99.99,,2013-05-17 14:12:00,
2013-05-17 14:22:00,53.0,36.0,-100.00,NW,315,6.0,7.0,53,-99.99,,,-99.99,,2013-05-17 14:22:00,
2013-05-17 14:34:00,54.0,36.0,-100.00,NNW,335,4.0,8.0,50,-99.99,,,-99.99,,2013-05-17 14:34:00,
2013-05-17 14:42:00,53.0,36.0,-100.00,NW,325,4.0,7.0,51,-99.99,,,-99.99,,2013-05-17 14:42:00,
2013-05-17 14:53:00,54.0,36.0,-100.00,NW,310,4.0,6.0,51,-99.99,,,-99.99,,2013-05-17 14:53:00,
2013-05-17 15:03:00,54.0,36.0,-100.00,NNW,330,4.0,6.0,50,-99.99,,,-99.99,,2013-05-17 15:03:00,
2013-05-17 15:13:00,54.0,36.0,-100.00,NNW,330,4.0,6.0,50,-99.99,,,-99.99,,2013-05-17 15:13:00,
2013-05-17 15:25:00,55.0,36.0,-100.00,NW,325,2.0,5.0,47,-99.99,,,-99.99,,2013-05-17 15:25:00,
2013-05-17 15:37:00,57.0,36.0,-100.00,West,265,0.0,4.0,44,-99.99,,,-99.99,,2013-05-17 15:37:00,
2013-05-17 15:47:00,58.0,36.0,-100.00,NNW,330,2.0,5.0,44,-99.99,,,-99.99,,2013-05-17 15:47:00,
2013-05-17 15:56:00,58.0,36.0,-100.00,NW,305,4.0,5.0,42,-99.99,,,-99.99,,2013-05-17 15:56:00,
2013-05-17 16:07:00,61.0,36.0,-100.00,WNW,285,2.0,6.0,38,-99.99,,,-99.99,,2013-05-17 16:07:00,
2013-05-17 16:13:00,61.0,35.0,-100.00,North,5,1.0,3.0,38,-99.99,,,-99.99,,2013-05-17 16:13:00,
2013-05-17 16:26:00,61.0,36.0,-100.00,West,280,3.0,5.0,38,-99.99,,,-99.99,,2013-05-17 16:26:00,
2013-05-17 16:37:00,63.0,36.0,-100.00,SSW,195,6.0,12.0,36,-99.99,,,-99.99,,2013-05-17 16:37:00,
2013-05-17 16:49:00,62.0,35.0,-100.00,South,175,7.0,11.0,35,-99.99,,,-99.99,,2013-05-17 16:49:00,
2013-05-17 16:56:00,63.0,34.0,-100.00,South,180,8.0,16.0,34,-99.99,,,-99.99,,2013-05-17 16:56:00,
2013-05-17 17:07:00,64.0,35.0,-100.00,South,180,9.0,16.0,32,-99.99,,,-99.99,,2013-05-17 17:07:00,
2013-05-17 17:18:00,63.0,34.0,-100.00,North,-999,-999.0,-999.0,32,-99.99,,,-99.99,,2013-05-17 17:18:00,
2013-05-17 17:29:00,65.0,33.0,-100.00,SSW,210,12.0,18.0,30,-99.99,,,-99.99,,2013-05-17 17:29:00,
2013-05-17 17:40:00,65.0,-99.9,-100.00,SSW,205,16.0,21.0,29,-99.99,,,-99.99,,2013-05-17 17:40:00,
2013-05-17 17:48:00,66.0,32.0,-100.00,SSW,205,13.0,21.0,27,-99.99,,,-99.99,,2013-05-17 17:48:00,
2013-05-17 18:00:00,66.0,30.0,-100.00,SSW,195,17.0,25.0,25,-99.99,,,-99.99,,2013-05-17 18:00:00,
2013-05-17 18:08:00,67.0,29.0,-100.00,SSW,205,14.0,25.0,23,-99.99,,,-99.99,,2013-05-17 18:08:00,
2013-05-17 18:20:00,67.0,27.0,-100.00,SSW,195,16.0,25.0,22,-99.99,,,-99.99,,2013-05-17 18:20:00,
2013-05-17 18:30:00,67.0,29.0,-100.00,SW,230,17.0,23.0,23,-99.99,,,-99.99,,2013-05-17 18:30:00,
2013-05-17 18:40:00,68.0,29.0,-100.00,SW,220,17.0,22.0,23,-99.99,,,-99.99,,2013-05-17 18:40:00,
2013-05-17 18:50:00,-999.0,-99.9,-100.00,SW,230,17.0,23.0,21,-99.99,,,-99.99,,2013-05-17 18:50:00,
2013-05-17 19:00:00,68.0,27.0,-100.00,SW,230,22.0,30.0,21,-99.99,,,-99.99,,2013-05-17 19:00:00,
2013-05-17 19:10:00,70.0,24.0,-100.00,WSW,245,21.0,28.0,18,-99.99,,,-99.99,,2013-05-17 19:10:00,
2013-05-17 19:20:00,70.0,25.0,-100.00,WSW,250,27.0,31.0,18,-99.99,,,-99.99,,2013-05-17 19:20:00,
2013-05-17 19:30:00,68.0,24.0,-100.00,West,265,22.0,31.0,18,-99.99,,,-99.99,,2013-05-17 19:30:00,
2013-05-17 19:40:00,68.0,24.0,-100.00,WSW,245,23.0,30.0,18,-99.99,,,-99.99,,2013-05-17 19:40:00,
2013-05-17 19:50:00,67.0,23.0,-100.00,WSW,245,19.0,30.0,18,-99.99,,,-99.99,,2013-05-17 19:50:00,
2013-05-17 20:00:00,69.0,-99.9,-100.00,WSW,240,21.0,32.0,17,-99.99,,,-99.99,,2013-05-17 20:00:00,
2013-05-17 20:09:00,71.0,25.0,-100.00,SW,225,21.0,29.0,17,-99.99,,,-99.99,,2013-05-17 20:09:00,
2013-05-17 20:20:00,69.0,22.0,-100.00,WSW,240,16.0,22.0,16,-99.99,,,-99.99,,2013-05-17 20:20:00,
2013-05-17 20:30:00,70.0,23.0,-100.00,West,260,18.0,27.0,16,-99.99,,,-99.99,,2013-05-17 20:30:00,
2013-05-17 20:40:00,68.0,22.0,-100.00,WSW,240,18.0,22.0,17,-99.99,,,-99.99,,2013-05-17 20:40:00,
2013-05-17 20:49:00,69.0,22.0,-100.00,WSW,240,16.0,22.0,16,-99.99,,,-99.99,,2013-05-17 20:49:00,
2013-05-17 20:57:00,68.0,21.0,-100.00,North,-999,-999.0,-999.0,16,-99.99,,,-99.99,,2013-05-17 20:57:00,
2013-05-17 21:07:00,68.0,21.0,-100.00,SW,220,17.0,22.0,16,-99.99,,,-99.99,,2013-05-17 21:07:00,
2013-05-17 21:16:00,68.0,21.0,-100.00,WSW,245,15.0,22.0,16,-99.99,,,-99.99,,2013-05-17 21:16:00,
2013-05-17 21:25:00,69.0,22.0,-100.00,WSW,245,19.0,26.0,16,-99.99,,,-99.99,,2013-05-17 21:25:00,
2013-05-17 21:39:00,70.0,23.0,-100.00,WSW,255,13.0,22.0,16,-99.99,,,-99.99,,2013-05-17 21:39:00,
2013-05-17 21:49:00,71.0,23.0,-100.00,SW,235,15.0,19.0,16,-99.99,,,-99.99,,2013-05-17 21:49:00,
2013-05-17 21:57:00,71.0,23.0,-100.00,West,270,19.0,26.0,16,-99.99,,,-99.99,,2013-05-17 21:57:00,
2013-05-17 22:06:00,71.0,23.0,-100.00,SW,225,19.0,25.0,16,-99.99,,,-99.99,,2013-05-17 22:06:00,
2013-05-17 22:16:00,71.0,24.0,-100.00,West,265,19.0,26.0,16,-99.99,,,-99.99,,2013-05-17 22:16:00,
2013-05-17 22:28:00,68.0,24.0,-100.00,WSW,250,21.0,29.0,18,-99.99,,,-99.99,,2013-05-17 22:28:00,
2013-05-17 22:37:00,67.0,24.0,-100.00,West,265,18.0,30.0,19,-99.99,,,-99.99,,2013-05-17 22:37:00,
2013-05-17 22:47:00,69.0,25.0,-100.00,WSW,255,21.0,29.0,19,-99.99,,,-99.99,,2013-05-17 22:47:00,
2013-05-17 22:54:00,67.0,24.0,-100.00,West,265,25.0,29.0,19,-99.99,,,-99.99,,2013-05-17 22:54:00,
2013-05-17 23:04:00,67.0,25.0,-100.00,West,265,23.0,30.0,19,-99.99,,,-99.99,,2013-05-17 23:04:00,
2013-05-17 23:12:00,67.0,25.0,-100.00,West,265,21.0,34.0,19,-99.99,,,-99.99,,2013-05-17 23:12:00,
2013-05-17 23:23:00,68.0,25.0,-100.00,West,275,21.0,31.0,19,-99.99,,,-99.99,,2013-05-17 23:23:00,
2013-05-17 23:37:00,67.0,25.0,-100.00,West,280,21.0,31.0,19,-99.99,,,-99.99,,2013-05-17 23:37:00,
2013-05-17 23:47:00,67.0,25.0,-100.00,West,275,22.0,31.0,19,-99.99,,,-99.99,,2013-05-17 23:47:00,
2013-05-17 23:53:00,65.0,24.0,-100.00,West,275,24.0,36.0,21,-99.99,,,-99.99,,2013-05-17 23:53:00,